TimeEDT,TemperatureF,Dew PointF,Humidity,Sea Level PressureIn,VisibilityMPH,Wind Direction,Wind SpeedMPH,Gust SpeedMPH,PrecipitationIn,Events,Conditions,WindDirDegrees,DateUTC
12:51 AM,57.9,55.9,93,30.09,8.0,Calm,Calm,-,N/A,,Clear,0,2013-10-01 04:51:00
1:51 AM,57.9,55.9,93,30.08,8.0,Calm,Calm,-,N/A,,Clear,0,2013-10-01 05:51:00
2:51 AM,57.0,55.0,93,30.08,5.0,Calm,Calm,-,N/A,,Clear,0,2013-10-01 06:51:00
3:51 AM,55.9,55.0,97,30.08,6.0,Calm,Calm,-,N/A,,Clear,0,2013-10-01 07:51:00
4:51 AM,55.0,54.0,96,30.09,5.0,Calm,Calm,-,N/A,,Clear,0,2013-10-01 08:51:00
5:51 AM,55.0,54.0,96,30.10,5.0,Calm,Calm,-,N/A,,Clear,0,2013-10-01 09:51:00
6:51 AM,55.0,54.0,96,30.12,5.0,Calm,Calm,-,N/A,,Clear,0,2013-10-01 10:51:00
7:51 AM,55.0,54.0,96,30.15,3.0,Calm,Calm,-,N/A,,Clear,0,2013-10-01 11:51:00
8:51 AM,59.0,57.0,93,30.17,5.0,Calm,Calm,-,N/A,,Clear,0,2013-10-01 12:51:00
9:51 AM,66.9,59.0,76,30.17,7.0,WNW,3.5,-,N/A,,Clear,300,2013-10-01 13:51:00
10:51 AM,72.0,59.0,64,30.17,9.0,West,3.5,-,N/A,,Mostly Cloudy,270,2013-10-01 14:51:00
11:51 AM,73.9,57.9,57,30.17,9.0,Variable,3.5,-,N/A,,Clear,0,2013-10-01 15:51:00
12:51 PM,75.9,57.0,52,30.15,10.0,Calm,Calm,-,N/A,,Clear,0,2013-10-01 16:51:00
1:51 PM,78.1,55.0,45,30.12,10.0,Calm,Calm,-,N/A,,Clear,0,2013-10-01 17:51:00
2:51 PM,80.1,55.9,43,30.09,9.0,Variable,3.5,-,N/A,,Clear,0,2013-10-01 18:51:00
3:51 PM,80.1,55.9,43,30.08,9.0,NW,6.9,-,N/A,,Clear,310,2013-10-01 19:51:00
4:51 PM,80.1,55.9,43,30.07,10.0,West,4.6,-,N/A,,Clear,260,2013-10-01 20:51:00
5:51 PM,80.1,55.9,43,30.07,10.0,Calm,Calm,-,N/A,,Clear,0,2013-10-01 21:51:00
6:51 PM,73.9,59.0,59,30.08,9.0,Calm,Calm,-,N/A,,Clear,0,2013-10-01 22:51:00
7:51 PM,69.1,61.0,75,30.09,9.0,Calm,Calm,-,N/A,,Clear,0,2013-10-01 23:51:00
8:51 PM,66.0,59.0,78,30.11,10.0,Calm,Calm,-,N/A,,Clear,0,2013-10-02 00:51:00
9:51 PM,66.0,60.1,81,30.12,9.0,Calm,Calm,-,N/A,,Clear,0,2013-10-02 01:51:00
10:51 PM,63.0,60.1,90,30.13,9.0,Calm,Calm,-,N/A,,Clear,0,2013-10-02 02:51:00
11:51 PM,62.1,59.0,90,30.13,9.0,Calm,Calm,-,N/A,,Clear,0,2013-10-02 03:51:00